Time,TemperatureF,DewpointF,PressureIn,WindDirection,WindDirectionDegrees,WindSpeedMPH,WindSpeedGustMPH,Humidity,HourlyPrecipIn,Conditions,Clouds,dailyrainin,SolarRadiationWatts/m^2,SoftwareType,DateUTC
2013-03-01 00:00:00,32.8,32.0,29.50,NNW,333,0.0,0.0,97,0.00,,---,0.65,0.00,VWS V14.01,2013-03-01 05:00:00,
2013-03-01 00:06:00,32.8,32.0,29.50,NNW,333,0.0,0.0,97,0.00,,---,0.00,0.00,VWS V14.01,2013-03-01 05:06:00,
2013-03-01 00:11:00,32.8,32.0,29.50,NNW,333,0.0,0.0,97,0.00,,---,0.00,0.00,VWS V14.01,2013-03-01 05:11:00,
2013-03-01 00:16:00,32.7,31.9,29.50,NNW,333,0.0,0.0,97,0.00,,---,0.00,0.00,VWS V14.01,2013-03-01 05:16:00,
2013-03-01 00:21:00,32.7,31.9,29.50,NNW,333,0.0,0.0,97,0.00,,---,0.00,0.00,VWS V14.01,2013-03-01 05:21:00,
2013-03-01 00:26:00,32.7,31.9,29.50,NNW,333,0.0,0.0,97,0.00,,---,0.00,0.00,VWS V14.01,2013-03-01 05:26:00,
2013-03-01 00:31:00,32.7,31.9,29.50,NNW,333,0.0,0.0,97,0.00,,---,0.00,0.00,VWS V14.01,2013-03-01 05:31:00,
2013-03-01 00:36:00,32.7,31.9,29.50,NNW,333,0.0,0.0,97,0.00,,---,0.00,0.00,VWS V14.01,2013-03-01 05:36:00,
2013-03-01 00:41:00,32.7,31.9,29.51,NNW,333,0.0,0.0,97,0.00,,---,0.00,0.00,VWS V14.01,2013-03-01 05:41:00,
2013-03-01 00:46:00,32.6,31.8,29.50,NNW,333,0.0,0.0,97,0.00,,---,0.00,0.00,VWS V14.01,2013-03-01 05:46:00,
2013-03-01 00:51:00,32.6,31.8,29.50,NNW,333,0.0,0.0,97,0.00,,---,0.00,0.00,VWS V14.01,2013-03-01 05:51:00,
2013-03-01 00:56:00,32.6,31.8,29.50,NNW,333,0.0,0.0,97,0.00,,---,0.00,0.00,VWS V14.01,2013-03-01 05:56:00,
2013-03-01 01:01:00,32.6,31.8,29.50,NNW,333,0.0,0.0,97,0.00,,---,0.00,0.00,VWS V14.01,2013-03-01 06:01:00,
2013-03-01 01:06:00,32.3,31.5,29.50,NNW,333,0.0,0.0,97,0.00,,---,0.00,0.00,VWS V14.01,2013-03-01 06:06:00,
2013-03-01 01:11:00,32.3,31.5,29.50,NNW,333,0.0,0.0,97,0.00,,---,0.00,0.00,VWS V14.01,2013-03-01 06:11:00,
2013-03-01 01:16:00,32.1,31.4,29.50,NNW,333,0.0,0.0,97,0.00,,---,0.00,0.00,VWS V14.01,2013-03-01 06:16:00,
2013-03-01 01:21:00,32.1,31.4,29.50,NNW,333,0.0,0.0,97,0.00,,---,0.00,0.00,VWS V14.01,2013-03-01 06:21:00,
2013-03-01 01:26:00,32.0,31.2,29.50,NNW,333,0.0,0.0,97,0.00,,---,0.00,0.00,VWS V14.01,2013-03-01 06:26:00,
2013-03-01 01:31:00,32.0,31.2,29.50,NNW,333,0.0,0.0,97,0.00,,---,0.00,0.00,VWS V14.01,2013-03-01 06:31:00,
2013-03-01 01:36:00,32.0,31.2,29.50,NNW,333,0.0,0.0,97,0.00,,---,0.00,0.00,VWS V14.01,2013-03-01 06:36:00,
2013-03-01 01:41:00,32.0,31.2,29.50,NNW,333,0.0,0.0,97,0.00,,---,0.00,0.00,VWS V14.01,2013-03-01 06:41:00,
2013-03-01 01:46:00,32.0,31.2,29.49,NNW,333,0.0,0.0,97,0.00,,---,0.00,0.00,VWS V14.01,2013-03-01 06:46:00,
2013-03-01 01:51:00,32.0,31.2,29.49,NNW,333,0.0,0.0,97,0.00,,---,0.00,0.00,VWS V14.01,2013-03-01 06:51:00,
2013-03-01 01:56:00,32.0,31.2,29.49,NNW,329,0.0,0.0,97,0.00,,---,0.00,0.00,VWS V14.01,2013-03-01 06:56:00,
2013-03-01 02:01:00,32.0,31.2,29.49,NNW,329,0.0,0.0,97,0.00,,---,0.00,0.00,VWS V14.01,2013-03-01 07:01:00,
2013-03-01 02:06:00,32.0,31.2,29.49,NNW,329,0.0,0.0,97,0.00,,---,0.00,0.00,VWS V14.01,2013-03-01 07:06:00,
2013-03-01 02:11:00,32.0,31.2,29.49,NNW,329,0.0,0.0,97,0.00,,---,0.00,0.00,VWS V14.01,2013-03-01 07:11:00,
2013-03-01 02:16:00,32.0,31.2,29.49,NNW,329,0.0,0.0,97,0.00,,---,0.00,0.00,VWS V14.01,2013-03-01 07:16:00,
2013-03-01 02:21:00,31.8,31.0,29.49,NNW,329,0.0,0.0,97,0.00,,---,0.00,0.00,VWS V14.01,2013-03-01 07:21:00,
2013-03-01 02:26:00,31.8,31.0,29.49,NNW,329,0.0,0.0,97,0.00,,---,0.00,0.00,VWS V14.01,2013-03-01 07:26:00,
2013-03-01 02:31:00,31.8,31.0,29.48,NNW,329,0.0,1.0,97,0.00,,---,0.00,0.00,VWS V14.01,2013-03-01 07:31:00,
2013-03-01 02:36:00,31.8,31.0,29.49,NNW,329,0.0,1.0,97,0.00,,---,0.00,0.00,VWS V14.01,2013-03-01 07:36:00,
2013-03-01 02:41:00,31.8,31.0,29.49,NNW,329,0.0,1.0,97,0.00,,---,0.00,0.00,VWS V14.01,2013-03-01 07:41:00,
2013-03-01 02:46:00,31.8,31.0,29.49,NNW,329,0.0,1.0,97,0.00,,---,0.00,0.00,VWS V14.01,2013-03-01 07:46:00,
2013-03-01 02:51:00,31.8,31.0,29.49,NNW,329,0.0,0.0,97,0.00,,---,0.00,0.00,VWS V14.01,2013-03-01 07:51:00,
2013-03-01 02:56:00,31.8,31.0,29.49,NNW,329,0.0,0.0,97,0.00,,---,0.00,0.00,VWS V14.01,2013-03-01 07:56:00,
2013-03-01 03:01:00,31.8,31.0,29.49,NNW,329,0.0,1.0,97,0.00,,---,0.00,0.00,VWS V14.01,2013-03-01 08:01:00,
2013-03-01 03:06:00,32.0,31.2,29.49,NNW,329,0.0,0.0,97,0.00,,---,0.00,0.00,VWS V14.01,2013-03-01 08:06:00,
2013-03-01 03:11:00,32.0,31.2,29.49,NNW,329,0.0,2.0,97,0.00,,---,0.00,0.00,VWS V14.01,2013-03-01 08:11:00,
2013-03-01 03:16:00,32.0,31.2,29.49,NNW,329,0.0,2.0,97,0.00,,---,0.00,0.00,VWS V14.01,2013-03-01 08:16:00,
2013-03-01 03:21:00,32.0,31.2,29.49,NNW,329,0.0,1.0,97,0.00,,---,0.00,0.00,VWS V14.01,2013-03-01 08:21:00,
2013-03-01 03:26:00,32.0,31.2,29.49,NNW,328,0.0,1.0,97,0.00,,---,0.00,0.00,VWS V14.01,2013-03-01 08:26:00,
2013-03-01 03:31:00,32.0,31.2,29.49,NNW,328,0.0,1.0,97,0.00,,---,0.00,0.00,VWS V14.01,2013-03-01 08:31:00,
2013-03-01 03:36:00,32.0,31.2,29.50,NNW,328,0.0,0.0,97,0.00,,---,0.00,0.00,VWS V14.01,2013-03-01 08:36:00,
2013-03-01 03:41:00,32.0,31.2,29.50,NNW,328,0.0,1.0,97,0.00,,---,0.00,0.00,VWS V14.01,2013-03-01 08:41:00,
2013-03-01 03:46:00,31.8,31.0,29.50,NNW,328,0.0,1.0,97,0.00,,---,0.00,0.00,VWS V14.01,2013-03-01 08:46:00,
2013-03-01 03:51:00,31.8,31.0,29.50,NNW,328,0.0,0.0,97,0.00,,---,0.00,0.00,VWS V14.01,2013-03-01 08:51:00,
2013-03-01 03:56:00,31.8,31.0,29.50,NNW,328,0.0,0.0,97,0.00,,---,0.00,0.00,VWS V14.01,2013-03-01 08:56:00,
2013-03-01 04:01:00,31.7,31.0,29.50,NNW,328,0.0,0.0,97,0.00,,---,0.00,0.00,VWS V14.01,2013-03-01 09:01:00,
2013-03-01 04:06:00,31.7,31.0,29.50,NNW,328,0.0,0.0,97,0.00,,---,0.00,0.00,VWS V14.01,2013-03-01 09:06:00,
2013-03-01 04:11:00,31.7,31.0,29.50,NNW,328,0.0,0.0,97,0.00,,---,0.00,0.00,VWS V14.01,2013-03-01 09:11:00,
2013-03-01 04:16:00,31.5,30.8,29.50,NNW,328,0.0,0.0,97,0.00,,---,0.00,0.00,VWS V14.01,2013-03-01 09:16:00,
2013-03-01 04:21:00,31.5,30.8,29.51,NNW,328,0.0,0.0,97,0.00,,---,0.00,0.00,VWS V14.01,2013-03-01 09:21:00,
2013-03-01 04:26:00,31.4,30.6,29.51,NNW,328,0.0,0.0,97,0.00,,---,0.00,0.00,VWS V14.01,2013-03-01 09:26:00,
2013-03-01 04:31:00,31.4,30.6,29.51,NNW,328,0.0,0.0,97,0.00,,---,0.00,0.00,VWS V14.01,2013-03-01 09:31:00,
2013-03-01 04:36:00,31.2,30.5,29.51,NNW,328,0.0,0.0,97,0.00,,---,0.00,0.00,VWS V14.01,2013-03-01 09:36:00,
2013-03-01 04:41:00,31.1,30.4,29.51,NNW,328,0.0,0.0,97,0.00,,---,0.00,0.00,VWS V14.01,2013-03-01 09:41:00,
2013-03-01 04:46:00,30.9,30.1,29.51,NNW,328,0.0,2.0,97,0.00,,---,0.00,0.00,VWS V14.01,2013-03-01 09:46:00,
2013-03-01 04:51:00,30.9,30.1,29.51,NNW,328,0.0,2.0,97,0.00,,---,0.00,0.00,VWS V14.01,2013-03-01 09:51:00,
2013-03-01 04:56:00,30.8,30.0,29.51,NNW,328,1.0,2.0,97,0.00,,---,0.00,0.00,VWS V14.01,2013-03-01 09:56:00,
2013-03-01 05:01:00,30.8,30.0,29.51,NNW,328,2.0,2.0,97,0.00,,---,0.00,0.00,VWS V14.01,2013-03-01 10:01:00,
2013-03-01 05:06:00,30.8,30.0,29.51,NNW,327,0.0,1.0,97,0.00,,---,0.00,0.00,VWS V14.01,2013-03-01 10:06:00,
2013-03-01 05:11:00,30.8,30.0,29.51,NW,326,0.0,2.0,97,0.00,,---,0.00,0.00,VWS V14.01,2013-03-01 10:11:00,
2013-03-01 05:16:00,30.6,29.9,29.51,NW,326,0.0,2.0,97,0.00,,---,0.00,0.00,VWS V14.01,2013-03-01 10:16:00,
2013-03-01 05:21:00,30.6,29.9,29.51,NW,326,0.0,2.0,97,0.00,,---,0.00,0.00,VWS V14.01,2013-03-01 10:21:00,
2013-03-01 05:26:00,30.6,29.9,29.51,NW,326,0.0,2.0,97,0.00,,---,0.00,0.00,VWS V14.01,2013-03-01 10:26:00,
2013-03-01 05:31:00,30.5,29.8,29.51,NW,326,0.0,2.0,97,0.00,,---,0.00,0.00,VWS V14.01,2013-03-01 10:31:00,
2013-03-01 05:36:00,30.5,29.8,29.51,NW,326,0.0,0.0,97,0.00,,---,0.00,0.00,VWS V14.01,2013-03-01 10:36:00,
2013-03-01 05:41:00,30.3,29.5,29.52,NNW,327,0.0,1.0,97,0.00,,---,0.00,0.00,VWS V14.01,2013-03-01 10:41:00,
2013-03-01 05:46:00,30.3,29.5,29.52,NW,326,1.0,1.0,97,0.00,,---,0.00,0.00,VWS V14.01,2013-03-01 10:46:00,
2013-03-01 05:51:00,30.2,29.5,29.52,NW,326,1.0,1.0,97,0.00,,---,0.00,0.00,VWS V14.01,2013-03-01 10:51:00,
2013-03-01 05:56:00,30.0,29.2,29.52,NW,326,0.0,2.0,97,0.00,,---,0.00,0.00,VWS V14.01,2013-03-01 10:56:00,
2013-03-01 06:01:00,30.0,29.2,29.52,NW,326,0.0,2.0,97,0.00,,---,0.00,0.00,VWS V14.01,2013-03-01 11:01:00,
2013-03-01 06:06:00,29.9,29.1,29.52,NW,326,0.0,1.0,97,0.00,,---,0.00,0.00,VWS V14.01,2013-03-01 11:06:00,
2013-03-01 06:11:00,29.7,29.0,29.52,NW,326,0.0,1.0,97,0.00,,---,0.00,0.00,VWS V14.01,2013-03-01 11:11:00,
2013-03-01 06:16:00,29.7,29.0,29.52,NW,326,0.0,1.0,97,0.00,,---,0.00,0.00,VWS V14.01,2013-03-01 11:16:00,
2013-03-01 06:21:00,29.6,28.9,29.52,NW,326,0.0,2.0,97,0.00,,---,0.00,0.00,VWS V14.01,2013-03-01 11:21:00,
2013-03-01 06:26:00,29.4,28.7,29.52,NW,326,0.0,2.0,97,0.00,,---,0.00,0.00,VWS V14.01,2013-03-01 11:26:00,
2013-03-01 06:31:00,29.4,28.7,29.53,West,273,0.0,2.0,97,0.00,,---,0.00,0.00,VWS V14.01,2013-03-01 11:31:00,
2013-03-01 06:36:00,29.3,28.6,29.53,West,273,0.0,0.0,97,0.00,,---,0.00,5.00,VWS V14.01,2013-03-01 11:36:00,
2013-03-01 06:41:00,29.3,28.6,29.53,West,273,0.0,0.0,97,0.00,,---,0.00,9.00,VWS V14.01,2013-03-01 11:41:00,
2013-03-01 06:46:00,29.3,28.6,29.53,West,273,0.0,0.0,97,0.00,,---,0.00,11.00,VWS V14.01,2013-03-01 11:46:00,
2013-03-01 06:51:00,29.3,28.6,29.53,West,273,0.0,0.0,97,0.00,,---,0.00,14.00,VWS V14.01,2013-03-01 11:51:00,
2013-03-01 06:57:00,29.3,28.6,29.53,West,273,0.0,0.0,97,0.00,,---,0.00,18.00,VWS V14.01,2013-03-01 11:57:00,
2013-03-01 07:02:00,29.3,28.6,29.53,West,273,0.0,0.0,97,0.00,,---,0.00,19.00,VWS V14.01,2013-03-01 12:02:00,
2013-03-01 07:07:00,29.3,28.6,29.54,West,273,0.0,2.0,97,0.00,,---,0.00,19.00,VWS V14.01,2013-03-01 12:07:00,
2013-03-01 07:12:00,29.3,28.6,29.54,West,273,0.0,2.0,97,0.00,,---,0.00,23.00,VWS V14.01,2013-03-01 12:12:00,
2013-03-01 07:16:00,29.3,28.6,29.54,West,273,0.0,2.0,97,0.00,,---,0.00,23.00,VWS V14.01,2013-03-01 12:16:00,
2013-03-01 07:21:00,29.3,28.6,29.54,West,273,0.0,0.0,97,0.00,,---,0.00,26.00,VWS V14.01,2013-03-01 12:21:00,
2013-03-01 07:26:00,29.4,28.7,29.54,West,273,0.0,0.0,97,0.00,,---,0.00,32.00,VWS V14.01,2013-03-01 12:26:00,
2013-03-01 07:32:00,29.4,28.7,29.55,West,273,0.0,1.0,97,0.00,,---,0.00,32.00,VWS V14.01,2013-03-01 12:32:00,
2013-03-01 07:37:00,29.6,28.9,29.55,West,273,0.0,0.0,97,0.00,,---,0.00,49.00,VWS V14.01,2013-03-01 12:37:00,
2013-03-01 07:42:00,29.6,28.9,29.55,West,273,0.0,1.0,97,0.00,,---,0.00,79.00,VWS V14.01,2013-03-01 12:42:00,
2013-03-01 07:47:00,29.7,29.0,29.55,West,273,0.0,1.0,97,0.00,,---,0.00,77.00,VWS V14.01,2013-03-01 12:47:00,
2013-03-01 07:52:00,29.9,29.1,29.55,West,273,0.0,0.0,97,0.00,,---,0.00,79.00,VWS V14.01,2013-03-01 12:52:00,
2013-03-01 07:57:00,30.0,29.2,29.56,West,273,0.0,0.0,97,0.00,,---,0.00,84.00,VWS V14.01,2013-03-01 12:57:00,
2013-03-01 08:02:00,30.2,29.5,29.56,West,273,0.0,0.0,97,0.00,,---,0.00,97.00,VWS V14.01,2013-03-01 13:02:00,
2013-03-01 08:07:00,30.8,30.0,29.56,West,273,0.0,0.0,97,0.00,,---,0.00,97.00,VWS V14.01,2013-03-01 13:07:00,
2013-03-01 08:12:00,31.2,30.5,29.56,West,273,0.0,0.0,97,0.00,,---,0.00,100.00,VWS V14.01,2013-03-01 13:12:00,
2013-03-01 08:17:00,31.7,31.0,29.56,West,273,0.0,0.0,97,0.00,,---,0.00,97.00,VWS V14.01,2013-03-01 13:17:00,
2013-03-01 08:22:00,32.1,31.6,29.56,West,273,0.0,0.0,98,0.00,,---,0.00,102.00,VWS V14.01,2013-03-01 13:22:00,
2013-03-01 08:27:00,32.4,31.9,29.56,West,273,0.0,0.0,98,0.00,,---,0.00,95.00,VWS V14.01,2013-03-01 13:27:00,
2013-03-01 08:32:00,32.6,32.1,29.57,West,273,0.0,0.0,98,0.00,,---,0.00,102.00,VWS V14.01,2013-03-01 13:32:00,
2013-03-01 08:37:00,32.7,32.2,29.56,West,273,0.0,0.0,98,0.00,,---,0.00,102.00,VWS V14.01,2013-03-01 13:37:00,
2013-03-01 08:42:00,32.8,32.3,29.57,West,273,0.0,0.0,98,0.00,,---,0.00,111.00,VWS V14.01,2013-03-01 13:42:00,
2013-03-01 08:47:00,32.8,32.3,29.57,West,275,0.0,1.0,98,0.00,,---,0.00,114.00,VWS V14.01,2013-03-01 13:47:00,
2013-03-01 08:52:00,33.0,32.5,29.57,West,275,0.0,0.0,98,0.00,,---,0.00,127.00,VWS V14.01,2013-03-01 13:52:00,
2013-03-01 08:57:00,33.3,32.8,29.57,West,271,0.0,1.0,98,0.00,,---,0.00,125.00,VWS V14.01,2013-03-01 13:57:00,
2013-03-01 09:02:00,33.3,32.8,29.57,North,355,2.0,2.0,98,0.00,,---,0.00,120.00,VWS V14.01,2013-03-01 14:02:00,
2013-03-01 09:07:00,33.3,32.8,29.57,NNE,27,0.0,3.0,98,0.00,,---,0.00,128.00,VWS V14.01,2013-03-01 14:07:00,
2013-03-01 09:12:00,33.4,32.6,29.57,NNE,27,0.0,3.0,97,0.00,,---,0.00,141.00,VWS V14.01,2013-03-01 14:12:00,
2013-03-01 09:17:00,33.6,32.8,29.57,NNE,26,0.0,0.0,97,0.00,,---,0.00,153.00,VWS V14.01,2013-03-01 14:17:00,
2013-03-01 09:22:00,33.9,33.1,29.57,NNE,26,0.0,0.0,97,0.00,,---,0.00,153.00,VWS V14.01,2013-03-01 14:22:00,
2013-03-01 09:27:00,34.0,33.2,29.57,NNE,27,0.0,1.0,97,0.00,,---,0.00,163.00,VWS V14.01,2013-03-01 14:27:00,
2013-03-01 09:32:00,34.2,33.4,29.57,NNE,26,0.0,0.0,97,0.00,,---,0.00,179.00,VWS V14.01,2013-03-01 14:32:00,
2013-03-01 09:37:00,34.5,33.7,29.57,NNE,27,0.0,1.0,97,0.00,,---,0.00,165.00,VWS V14.01,2013-03-01 14:37:00,
2013-03-01 09:42:00,34.6,33.6,29.57,NNE,31,0.0,1.0,96,0.00,,---,0.00,156.00,VWS V14.01,2013-03-01 14:42:00,
2013-03-01 09:47:00,34.8,33.5,29.57,WNW,286,1.0,1.0,95,0.00,,---,0.00,155.00,VWS V14.01,2013-03-01 14:47:00,
2013-03-01 09:52:00,34.6,33.0,29.57,WNW,286,0.0,1.0,94,0.00,,---,0.00,174.00,VWS V14.01,2013-03-01 14:52:00,
2013-03-01 09:57:00,34.6,32.5,29.57,WNW,283,0.0,3.0,92,0.00,,---,0.00,195.00,VWS V14.01,2013-03-01 14:57:00,
2013-03-01 10:02:00,34.8,31.9,29.57,WNW,298,0.0,0.0,89,0.00,,---,0.00,188.00,VWS V14.01,2013-03-01 15:02:00,
2013-03-01 10:07:00,35.2,31.1,29.57,West,273,1.0,2.0,85,0.00,,---,0.00,176.00,VWS V14.01,2013-03-01 15:07:00,
2013-03-01 10:12:00,35.5,30.9,29.57,West,273,0.0,2.0,83,0.00,,---,0.00,230.00,VWS V14.01,2013-03-01 15:12:00,
2013-03-01 10:17:00,35.7,29.8,29.57,SW,227,1.0,1.0,79,0.00,,---,0.00,248.00,VWS V14.01,2013-03-01 15:17:00,
2013-03-01 10:22:00,36.1,29.6,29.57,WNW,288,0.0,3.0,77,0.00,,---,0.00,225.00,VWS V14.01,2013-03-01 15:22:00,
2013-03-01 10:27:00,35.9,29.4,29.57,WNW,296,0.0,4.0,77,0.00,,---,0.00,211.00,VWS V14.01,2013-03-01 15:27:00,
2013-03-01 10:32:00,35.9,28.8,29.57,West,279,0.0,0.0,75,0.00,,---,0.00,204.00,VWS V14.01,2013-03-01 15:32:00,
2013-03-01 10:37:00,36.2,29.4,29.57,West,279,0.0,0.0,76,0.00,,---,0.00,193.00,VWS V14.01,2013-03-01 15:37:00,
2013-03-01 10:42:00,36.4,29.9,29.57,West,281,0.0,2.0,77,0.00,,---,0.00,171.00,VWS V14.01,2013-03-01 15:42:00,
2013-03-01 10:47:00,36.1,29.3,29.57,WNW,290,3.0,3.0,76,0.00,,---,0.00,174.00,VWS V14.01,2013-03-01 15:47:00,
2013-03-01 10:52:00,36.1,28.3,29.57,WNW,292,0.0,4.0,73,0.00,,---,0.00,167.00,VWS V14.01,2013-03-01 15:52:00,
2013-03-01 10:57:00,35.9,28.8,29.57,WNW,291,2.0,4.0,75,0.00,,---,0.00,123.00,VWS V14.01,2013-03-01 15:57:00,
2013-03-01 11:02:00,35.8,28.3,29.58,WNW,288,2.0,2.0,74,0.00,,---,0.00,113.00,VWS V14.01,2013-03-01 16:02:00,
2013-03-01 11:07:00,35.5,28.0,29.58,WNW,298,2.0,4.0,74,0.00,,---,0.00,109.00,VWS V14.01,2013-03-01 16:07:00,
2013-03-01 11:12:00,35.4,28.3,29.58,WNW,292,2.0,5.0,75,0.00,,---,0.00,114.00,VWS V14.01,2013-03-01 16:12:00,
2013-03-01 11:17:00,35.1,28.0,29.58,WNW,295,1.0,3.0,75,0.00,,---,0.00,121.00,VWS V14.01,2013-03-01 16:17:00,
2013-03-01 11:22:00,35.2,27.8,29.58,WNW,296,3.0,5.0,74,0.00,,---,0.00,114.00,VWS V14.01,2013-03-01 16:22:00,
2013-03-01 11:27:00,35.2,27.8,29.58,NNW,346,0.0,5.0,74,0.00,,---,0.00,123.00,VWS V14.01,2013-03-01 16:27:00,
2013-03-01 11:32:00,35.2,27.8,29.58,WNW,295,1.0,2.0,74,0.00,,---,0.00,127.00,VWS V14.01,2013-03-01 16:32:00,
2013-03-01 11:37:00,35.4,28.0,29.59,WNW,284,1.0,4.0,74,0.00,,---,0.00,142.00,VWS V14.01,2013-03-01 16:37:00,
2013-03-01 11:42:00,35.4,27.3,29.59,West,281,0.0,4.0,72,0.00,,---,0.00,148.00,VWS V14.01,2013-03-01 16:42:00,
2013-03-01 11:47:00,35.4,27.6,29.58,West,280,0.0,1.0,73,0.00,,---,0.00,123.00,VWS V14.01,2013-03-01 16:47:00,
2013-03-01 11:52:00,35.4,27.3,29.59,WNW,292,0.0,4.0,72,0.00,,---,0.00,116.00,VWS V14.01,2013-03-01 16:52:00,
2013-03-01 11:57:00,35.4,28.0,29.58,WSW,249,0.0,4.0,74,0.00,,---,0.00,116.00,VWS V14.01,2013-03-01 16:57:00,
2013-03-01 12:02:00,35.5,28.0,29.58,WNW,289,0.0,0.0,74,0.00,,---,0.00,127.00,VWS V14.01,2013-03-01 17:02:00,
2013-03-01 12:07:00,35.2,28.1,29.58,West,273,0.0,8.0,75,0.00,,---,0.00,134.00,VWS V14.01,2013-03-01 17:07:00,
2013-03-01 12:12:00,35.4,28.0,29.58,West,274,3.0,8.0,74,0.00,,---,0.00,130.00,VWS V14.01,2013-03-01 17:12:00,
2013-03-01 12:17:00,35.5,27.7,29.58,WNW,282,0.0,0.0,73,0.00,,---,0.00,135.00,VWS V14.01,2013-03-01 17:17:00,
2013-03-01 12:22:00,35.4,27.6,29.58,WNW,286,2.0,2.0,73,0.00,,---,0.00,118.00,VWS V14.01,2013-03-01 17:22:00,
2013-03-01 12:27:00,35.4,28.0,29.58,West,280,2.0,2.0,74,0.00,,---,0.00,118.00,VWS V14.01,2013-03-01 17:27:00,
2013-03-01 12:32:00,35.2,27.4,29.58,WNW,283,0.0,1.0,73,0.00,,---,0.00,125.00,VWS V14.01,2013-03-01 17:32:00,
2013-03-01 12:37:00,35.2,27.1,29.59,WNW,292,1.0,2.0,72,0.00,,---,0.00,120.00,VWS V14.01,2013-03-01 17:37:00,
2013-03-01 12:42:00,35.4,27.6,29.59,WSW,254,0.0,2.0,73,0.00,,---,0.00,121.00,VWS V14.01,2013-03-01 17:42:00,
2013-03-01 12:47:00,35.4,28.0,29.59,WNW,287,0.0,1.0,74,0.00,,---,0.00,130.00,VWS V14.01,2013-03-01 17:47:00,
2013-03-01 12:52:00,35.4,27.3,29.58,WNW,296,0.0,2.0,72,0.00,,---,0.00,174.00,VWS V14.01,2013-03-01 17:52:00,
2013-03-01 12:57:00,35.5,27.0,29.58,West,275,1.0,2.0,71,0.00,,---,0.00,230.00,VWS V14.01,2013-03-01 17:57:00,
2013-03-01 13:03:00,35.5,26.7,29.58,NW,317,1.0,1.0,70,0.00,,---,0.00,213.00,VWS V14.01,2013-03-01 18:03:00,
2013-03-01 13:08:00,35.5,27.0,29.58,WNW,300,1.0,4.0,71,0.00,,---,0.00,207.00,VWS V14.01,2013-03-01 18:08:00,
2013-03-01 13:13:00,35.7,27.6,29.58,West,268,3.0,4.0,72,0.00,,---,0.00,220.00,VWS V14.01,2013-03-01 18:13:00,
2013-03-01 13:18:00,35.9,27.1,29.58,WNW,284,0.0,2.0,70,0.00,,---,0.00,297.00,VWS V14.01,2013-03-01 18:18:00,
2013-03-01 13:23:00,36.2,27.0,29.58,NW,309,0.0,3.0,69,0.00,,---,0.00,271.00,VWS V14.01,2013-03-01 18:23:00,
2013-03-01 13:28:00,36.2,27.0,29.58,NW,325,0.0,3.0,69,0.00,,---,0.00,190.00,VWS V14.01,2013-03-01 18:28:00,
2013-03-01 13:33:00,36.2,27.0,29.58,WNW,285,1.0,3.0,69,0.00,,---,0.00,171.00,VWS V14.01,2013-03-01 18:33:00,
2013-03-01 13:38:00,35.9,27.1,29.58,West,259,0.0,4.0,70,0.00,,---,0.00,155.00,VWS V14.01,2013-03-01 18:38:00,
2013-03-01 13:43:00,35.7,26.9,29.58,WNW,294,0.0,4.0,70,0.00,,---,0.00,134.00,VWS V14.01,2013-03-01 18:43:00,
2013-03-01 13:48:00,35.7,27.6,29.58,NNW,336,1.0,3.0,72,0.00,,---,0.00,118.00,VWS V14.01,2013-03-01 18:48:00,
2013-03-01 13:53:00,35.7,27.6,29.58,NNW,338,0.0,3.0,72,0.00,,---,0.00,105.00,VWS V14.01,2013-03-01 18:53:00,
2013-03-01 13:58:00,35.7,27.2,29.58,NNW,338,0.0,3.0,71,0.00,,---,0.00,102.00,VWS V14.01,2013-03-01 18:58:00,
2013-03-01 14:03:00,35.5,27.4,29.58,NNW,336,0.0,1.0,72,0.00,,---,0.00,102.00,VWS V14.01,2013-03-01 19:03:00,
2013-03-01 14:08:00,35.4,27.3,29.58,NW,324,0.0,1.0,72,0.00,,---,0.00,97.00,VWS V14.01,2013-03-01 19:08:00,
2013-03-01 14:13:00,35.4,27.6,29.58,NW,321,0.0,2.0,73,0.00,,---,0.00,90.00,VWS V14.01,2013-03-01 19:13:00,
2013-03-01 14:18:00,35.4,27.0,29.58,West,277,0.0,1.0,71,0.00,,---,0.00,90.00,VWS V14.01,2013-03-01 19:18:00,
2013-03-01 14:23:00,35.5,26.7,29.58,WNW,303,0.0,3.0,70,0.00,,---,0.00,84.00,VWS V14.01,2013-03-01 19:23:00,
2013-03-01 14:28:00,35.5,26.7,29.58,WNW,302,0.0,3.0,70,0.00,,---,0.00,90.00,VWS V14.01,2013-03-01 19:28:00,
2013-03-01 14:33:00,35.4,26.6,29.58,NE,42,0.0,0.0,70,0.00,,---,0.00,86.00,VWS V14.01,2013-03-01 19:33:00,
2013-03-01 14:38:00,35.5,27.4,29.59,WNW,296,2.0,2.0,72,0.00,,---,0.00,83.00,VWS V14.01,2013-03-01 19:38:00,
2013-03-01 14:43:00,35.5,26.7,29.59,NW,305,0.0,3.0,70,0.00,,---,0.00,81.00,VWS V14.01,2013-03-01 19:43:00,
2013-03-01 14:48:00,35.4,26.6,29.59,West,279,0.0,3.0,70,0.00,,---,0.00,76.00,VWS V14.01,2013-03-01 19:48:00,
2013-03-01 14:53:00,35.5,26.4,29.59,WNW,297,0.0,3.0,69,0.00,,---,0.00,79.00,VWS V14.01,2013-03-01 19:53:00,
2013-03-01 14:58:00,35.5,26.4,29.59,NW,319,0.0,3.0,69,0.00,,---,0.00,69.00,VWS V14.01,2013-03-01 19:58:00,
2013-03-01 15:03:00,35.5,26.7,29.59,WNW,288,0.0,4.0,70,0.00,,---,0.00,65.00,VWS V14.01,2013-03-01 20:03:00,
2013-03-01 15:08:00,35.4,26.6,29.59,WNW,285,0.0,4.0,70,0.00,,---,0.00,63.00,VWS V14.01,2013-03-01 20:08:00,
2013-03-01 15:13:00,35.4,26.6,29.59,NW,320,1.0,4.0,70,0.00,,---,0.00,63.00,VWS V14.01,2013-03-01 20:13:00,
2013-03-01 15:18:00,35.4,26.6,29.59,WNW,300,1.0,1.0,70,0.00,,---,0.00,60.00,VWS V14.01,2013-03-01 20:18:00,
2013-03-01 15:23:00,35.5,26.7,29.59,WNW,300,0.0,1.0,70,0.00,,---,0.00,54.00,VWS V14.01,2013-03-01 20:23:00,
2013-03-01 15:28:00,35.5,27.0,29.59,WNW,300,0.0,1.0,71,0.00,,---,0.00,54.00,VWS V14.01,2013-03-01 20:28:00,
2013-03-01 15:33:00,35.7,27.2,29.59,NW,309,0.0,0.0,71,0.00,,---,0.00,47.00,VWS V14.01,2013-03-01 20:33:00,
2013-03-01 15:38:00,35.7,27.2,29.59,NW,309,0.0,1.0,71,0.00,,---,0.00,46.00,VWS V14.01,2013-03-01 20:38:00,
2013-03-01 15:43:00,35.7,27.6,29.60,WNW,298,0.0,4.0,72,0.00,,---,0.00,47.00,VWS V14.01,2013-03-01 20:43:00,
2013-03-01 15:48:00,35.5,27.4,29.60,ENE,61,0.0,0.0,72,0.00,,---,0.00,49.00,VWS V14.01,2013-03-01 20:48:00,
2013-03-01 15:53:00,35.5,27.0,29.60,North,355,0.0,2.0,71,0.00,,---,0.00,46.00,VWS V14.01,2013-03-01 20:53:00,
2013-03-01 15:58:00,35.5,27.4,29.60,North,5,0.0,2.0,72,0.00,,---,0.00,39.00,VWS V14.01,2013-03-01 20:58:00,
2013-03-01 16:03:00,35.5,27.4,29.60,WNW,294,0.0,0.0,72,0.00,,---,0.00,37.00,VWS V14.01,2013-03-01 21:03:00,
2013-03-01 16:08:00,35.4,27.3,29.60,WNW,294,0.0,0.0,72,0.00,,---,0.00,37.00,VWS V14.01,2013-03-01 21:08:00,
2013-03-01 16:13:00,35.4,27.3,29.60,WNW,294,0.0,1.0,72,0.00,,---,0.00,37.00,VWS V14.01,2013-03-01 21:13:00,
2013-03-01 16:18:00,35.4,27.3,29.60,WNW,294,0.0,0.0,72,0.00,,---,0.00,32.00,VWS V14.01,2013-03-01 21:18:00,
2013-03-01 16:23:00,35.4,27.3,29.60,NW,305,0.0,4.0,72,0.00,,---,0.00,33.00,VWS V14.01,2013-03-01 21:23:00,
2013-03-01 16:28:00,35.2,26.8,29.60,WSW,250,0.0,4.0,71,0.00,,---,0.00,37.00,VWS V14.01,2013-03-01 21:28:00,
2013-03-01 16:33:00,35.1,27.0,29.60,West,275,0.0,0.0,72,0.00,,---,0.00,28.00,VWS V14.01,2013-03-01 21:33:00,
2013-03-01 16:38:00,35.1,27.0,29.60,West,275,0.0,1.0,72,0.00,,---,0.00,25.00,VWS V14.01,2013-03-01 21:38:00,
2013-03-01 16:43:00,35.1,27.0,29.61,NW,320,0.0,3.0,72,0.00,,---,0.00,21.00,VWS V14.01,2013-03-01 21:43:00,
2013-03-01 16:48:00,34.9,27.1,29.61,West,274,0.0,0.0,73,0.00,,---,0.00,21.00,VWS V14.01,2013-03-01 21:48:00,
2013-03-01 16:53:00,34.9,26.8,29.61,WSW,254,3.0,4.0,72,0.00,,---,0.00,19.00,VWS V14.01,2013-03-01 21:53:00,
2013-03-01 16:58:00,34.8,27.0,29.61,WNW,298,0.0,4.0,73,0.00,,---,0.00,19.00,VWS V14.01,2013-03-01 21:58:00,
2013-03-01 17:03:00,34.8,27.0,29.61,WNW,298,0.0,0.0,73,0.00,,---,0.00,16.00,VWS V14.01,2013-03-01 22:03:00,
2013-03-01 17:08:00,34.6,27.2,29.61,NW,306,0.0,2.0,74,0.00,,---,0.00,18.00,VWS V14.01,2013-03-01 22:08:00,
2013-03-01 17:13:00,34.6,26.9,29.61,NW,317,0.0,3.0,73,0.00,,---,0.00,12.00,VWS V14.01,2013-03-01 22:13:00,
2013-03-01 17:18:00,34.5,26.8,29.61,NW,317,0.0,0.0,73,0.00,,---,0.00,9.00,VWS V14.01,2013-03-01 22:18:00,
2013-03-01 17:23:00,34.3,26.9,29.61,NW,317,0.0,2.0,74,0.00,,---,0.00,5.00,VWS V14.01,2013-03-01 22:23:00,
2013-03-01 17:28:00,34.3,26.9,29.62,WNW,291,0.0,2.0,74,0.00,,---,0.00,0.00,VWS V14.01,2013-03-01 22:28:00,
2013-03-01 17:33:00,34.2,26.8,29.62,WNW,291,0.0,1.0,74,0.00,,---,0.00,0.00,VWS V14.01,2013-03-01 22:33:00,
2013-03-01 17:38:00,34.2,27.1,29.62,WNW,298,2.0,2.0,75,0.00,,---,0.00,0.00,VWS V14.01,2013-03-01 22:38:00,
2013-03-01 17:43:00,34.0,26.9,29.62,NW,305,0.0,2.0,75,0.00,,---,0.00,0.00,VWS V14.01,2013-03-01 22:43:00,
2013-03-01 17:48:00,33.9,26.8,29.62,NW,304,0.0,1.0,75,0.00,,---,0.00,0.00,VWS V14.01,2013-03-01 22:48:00,
2013-03-01 17:53:00,33.9,26.8,29.62,WNW,290,0.0,3.0,75,0.00,,---,0.00,0.00,VWS V14.01,2013-03-01 22:53:00,
2013-03-01 17:58:00,33.7,27.0,29.63,NW,317,0.0,4.0,76,0.00,,---,0.00,0.00,VWS V14.01,2013-03-01 22:58:00,
2013-03-01 18:03:00,33.6,26.9,29.63,West,274,0.0,2.0,76,0.00,,---,0.00,0.00,VWS V14.01,2013-03-01 23:03:00,
2013-03-01 18:08:00,33.6,26.9,29.63,West,275,0.0,2.0,76,0.00,,---,0.00,0.00,VWS V14.01,2013-03-01 23:08:00,
2013-03-01 18:13:00,33.4,26.7,29.63,West,275,0.0,2.0,76,0.00,,---,0.00,0.00,VWS V14.01,2013-03-01 23:13:00,
2013-03-01 18:18:00,33.4,26.7,29.63,WNW,302,0.0,1.0,76,0.00,,---,0.00,0.00,VWS V14.01,2013-03-01 23:18:00,
2013-03-01 18:23:00,33.3,26.6,29.63,WNW,292,0.0,1.0,76,0.00,,---,0.00,0.00,VWS V14.01,2013-03-01 23:23:00,
2013-03-01 18:28:00,33.3,26.9,29.64,WNW,292,0.0,1.0,77,0.00,,---,0.00,0.00,VWS V14.01,2013-03-01 23:28:00,
2013-03-01 18:33:00,33.1,26.7,29.64,WNW,292,0.0,0.0,77,0.00,,---,0.00,0.00,VWS V14.01,2013-03-01 23:33:00,
2013-03-01 18:38:00,33.1,27.0,29.63,WNW,292,0.0,0.0,78,0.00,,---,0.00,0.00,VWS V14.01,2013-03-01 23:38:00,
2013-03-01 18:43:00,33.1,27.0,29.64,WNW,292,0.0,0.0,78,0.00,,---,0.00,0.00,VWS V14.01,2013-03-01 23:43:00,
2013-03-01 18:48:00,33.0,26.9,29.64,WNW,292,0.0,0.0,78,0.00,,---,0.00,0.00,VWS V14.01,2013-03-01 23:48:00,
2013-03-01 18:53:00,33.0,26.9,29.64,WNW,292,0.0,0.0,78,0.00,,---,0.00,0.00,VWS V14.01,2013-03-01 23:53:00,
2013-03-01 18:58:00,33.0,26.9,29.64,WNW,292,0.0,0.0,78,0.00,,---,0.00,0.00,VWS V14.01,2013-03-01 23:58:00,
2013-03-01 19:03:00,32.8,26.7,29.63,WNW,292,0.0,0.0,78,0.00,,---,0.00,0.00,VWS V14.01,2013-03-02 00:03:00,
2013-03-01 19:08:00,32.8,26.7,29.63,WSW,251,0.0,2.0,78,0.00,,---,0.00,0.00,VWS V14.01,2013-03-02 00:08:00,
2013-03-01 19:13:00,32.7,26.9,29.63,WSW,251,0.0,2.0,79,0.00,,---,0.00,0.00,VWS V14.01,2013-03-02 00:13:00,
2013-03-01 19:18:00,32.7,26.9,29.63,WSW,250,0.0,1.0,79,0.00,,---,0.00,0.00,VWS V14.01,2013-03-02 00:18:00,
2013-03-01 19:23:00,32.7,26.9,29.63,WSW,250,1.0,1.0,79,0.00,,---,0.00,0.00,VWS V14.01,2013-03-02 00:23:00,
2013-03-01 19:28:00,32.7,26.9,29.64,WSW,250,0.0,1.0,79,0.00,,---,0.00,0.00,VWS V14.01,2013-03-02 00:28:00,
2013-03-01 19:33:00,32.6,26.8,29.64,WSW,250,0.0,0.0,79,0.00,,---,0.00,0.00,VWS V14.01,2013-03-02 00:33:00,
2013-03-01 19:38:00,32.6,27.1,29.64,WSW,250,1.0,1.0,80,0.00,,---,0.00,0.00,VWS V14.01,2013-03-02 00:38:00,
2013-03-01 19:43:00,32.6,27.1,29.64,WSW,252,0.0,1.0,80,0.00,,---,0.00,0.00,VWS V14.01,2013-03-02 00:43:00,
2013-03-01 19:48:00,32.6,27.1,29.64,WSW,252,0.0,1.0,80,0.00,,---,0.00,0.00,VWS V14.01,2013-03-02 00:48:00,
2013-03-01 19:53:00,32.4,26.9,29.64,WSW,254,1.0,1.0,80,0.00,,---,0.00,0.00,VWS V14.01,2013-03-02 00:53:00,
2013-03-01 19:58:00,32.4,26.9,29.64,West,269,0.0,1.0,80,0.00,,---,0.00,0.00,VWS V14.01,2013-03-02 00:58:00,
2013-03-01 20:03:00,32.4,26.9,29.63,NW,306,2.0,2.0,80,0.00,,---,0.00,0.00,VWS V14.01,2013-03-02 01:03:00,
2013-03-01 20:09:00,32.4,26.9,29.64,NW,305,0.0,3.0,80,0.00,,---,0.00,0.00,VWS V14.01,2013-03-02 01:09:00,
2013-03-01 20:14:00,32.4,26.9,29.64,WNW,284,1.0,3.0,80,0.00,,---,0.00,0.00,VWS V14.01,2013-03-02 01:14:00,
2013-03-01 20:19:00,32.3,26.8,29.64,WNW,297,0.0,3.0,80,0.00,,---,0.00,0.00,VWS V14.01,2013-03-02 01:19:00,
2013-03-01 20:24:00,32.3,26.8,29.64,NW,317,4.0,4.0,80,0.00,,---,0.00,0.00,VWS V14.01,2013-03-02 01:24:00,
2013-03-01 20:29:00,32.3,26.8,29.64,NW,304,0.0,4.0,80,0.00,,---,0.00,0.00,VWS V14.01,2013-03-02 01:29:00,
2013-03-01 20:34:00,32.3,26.8,29.64,West,263,3.0,3.0,80,0.00,,---,0.00,0.00,VWS V14.01,2013-03-02 01:34:00,
2013-03-01 20:39:00,32.3,26.8,29.64,West,270,0.0,3.0,80,0.00,,---,0.00,0.00,VWS V14.01,2013-03-02 01:39:00,
2013-03-01 20:44:00,32.3,26.8,29.64,WNW,288,0.0,3.0,80,0.00,,---,0.00,0.00,VWS V14.01,2013-03-02 01:44:00,
2013-03-01 20:49:00,32.3,26.8,29.64,WNW,288,0.0,0.0,80,0.00,,---,0.00,0.00,VWS V14.01,2013-03-02 01:49:00,
2013-03-01 20:54:00,32.1,26.6,29.64,West,277,0.0,2.0,80,0.00,,---,0.00,0.00,VWS V14.01,2013-03-02 01:54:00,
2013-03-01 20:59:00,32.1,26.9,29.64,WNW,286,1.0,2.0,81,0.00,,---,0.00,0.00,VWS V14.01,2013-03-02 01:59:00,
2013-03-01 21:04:00,32.1,26.9,29.64,WNW,286,0.0,2.0,81,0.00,,---,0.00,0.00,VWS V14.01,2013-03-02 02:04:00,
2013-03-01 21:09:00,32.0,26.8,29.64,WNW,286,0.0,2.0,81,0.00,,---,0.00,0.00,VWS V14.01,2013-03-02 02:09:00,
2013-03-01 21:14:00,32.0,26.8,29.64,WNW,286,0.0,2.0,81,0.00,,---,0.00,0.00,VWS V14.01,2013-03-02 02:14:00,
2013-03-01 21:19:00,32.0,26.8,29.64,WNW,287,0.0,1.0,81,0.00,,---,0.00,0.00,VWS V14.01,2013-03-02 02:19:00,
2013-03-01 21:24:00,31.8,26.6,29.64,WNW,287,0.0,1.0,81,0.00,,---,0.00,0.00,VWS V14.01,2013-03-02 02:24:00,
2013-03-01 21:29:00,31.8,26.6,29.64,WNW,286,0.0,1.0,81,0.00,,---,0.00,0.00,VWS V14.01,2013-03-02 02:29:00,
2013-03-01 21:34:00,31.8,26.6,29.64,WNW,286,0.0,1.0,81,0.00,,---,0.00,0.00,VWS V14.01,2013-03-02 02:34:00,
2013-03-01 21:39:00,31.7,26.5,29.63,WNW,286,0.0,1.0,81,0.00,,---,0.00,0.00,VWS V14.01,2013-03-02 02:39:00,
2013-03-01 21:44:00,31.7,26.5,29.64,WNW,286,0.0,1.0,81,0.00,,---,0.00,0.00,VWS V14.01,2013-03-02 02:44:00,
2013-03-01 21:49:00,31.5,26.6,29.63,WNW,286,1.0,1.0,82,0.00,,---,0.00,0.00,VWS V14.01,2013-03-02 02:49:00,
2013-03-01 21:54:00,31.5,26.6,29.63,WNW,286,2.0,2.0,82,0.00,,---,0.00,0.00,VWS V14.01,2013-03-02 02:54:00,
2013-03-01 21:59:00,31.5,26.6,29.64,WNW,286,0.0,2.0,82,0.00,,---,0.00,0.00,VWS V14.01,2013-03-02 02:59:00,
2013-03-01 22:04:00,31.4,26.5,29.63,WNW,286,1.0,2.0,82,0.00,,---,0.00,0.00,VWS V14.01,2013-03-02 03:04:00,
2013-03-01 22:09:00,31.4,26.5,29.63,WNW,287,0.0,2.0,82,0.00,,---,0.00,0.00,VWS V14.01,2013-03-02 03:09:00,
2013-03-01 22:14:00,31.2,26.4,29.64,WNW,287,0.0,2.0,82,0.00,,---,0.00,0.00,VWS V14.01,2013-03-02 03:14:00,
2013-03-01 22:19:00,31.2,26.6,29.64,WNW,287,0.0,1.0,83,0.00,,---,0.00,0.00,VWS V14.01,2013-03-02 03:19:00,
2013-03-01 22:24:00,31.2,26.6,29.64,WNW,286,0.0,1.0,83,0.00,,---,0.00,0.00,VWS V14.01,2013-03-02 03:24:00,
2013-03-01 22:29:00,31.2,26.6,29.64,WNW,286,0.0,1.0,83,0.00,,---,0.00,0.00,VWS V14.01,2013-03-02 03:29:00,
2013-03-01 22:34:00,31.1,26.5,29.64,WNW,286,0.0,1.0,83,0.00,,---,0.00,0.00,VWS V14.01,2013-03-02 03:34:00,
2013-03-01 22:39:00,31.1,26.5,29.64,WNW,286,0.0,1.0,83,0.00,,---,0.00,0.00,VWS V14.01,2013-03-02 03:39:00,
2013-03-01 22:44:00,31.1,26.5,29.64,WNW,286,0.0,1.0,83,0.00,,---,0.00,0.00,VWS V14.01,2013-03-02 03:44:00,
2013-03-01 22:49:00,31.1,26.5,29.63,WNW,286,0.0,0.0,83,0.00,,---,0.00,0.00,VWS V14.01,2013-03-02 03:49:00,
2013-03-01 22:54:00,31.1,26.5,29.64,West,281,0.0,2.0,83,0.00,,---,0.00,0.00,VWS V14.01,2013-03-02 03:54:00,
2013-03-01 22:59:00,31.1,26.5,29.63,West,281,0.0,2.0,83,0.00,,---,0.00,0.00,VWS V14.01,2013-03-02 03:59:00,
2013-03-01 23:04:00,30.9,26.4,29.63,WNW,286,0.0,0.0,83,0.00,,---,0.00,0.00,VWS V14.01,2013-03-02 04:04:00,
2013-03-01 23:09:00,30.9,26.4,29.63,WNW,286,0.0,0.0,83,0.00,,---,0.00,0.00,VWS V14.01,2013-03-02 04:09:00,
2013-03-01 23:14:00,30.9,26.4,29.63,WNW,286,0.0,0.0,83,0.00,,---,0.00,0.00,VWS V14.01,2013-03-02 04:14:00,
2013-03-01 23:19:00,30.9,26.4,29.63,WNW,286,0.0,0.0,83,0.00,,---,0.00,0.00,VWS V14.01,2013-03-02 04:19:00,
2013-03-01 23:24:00,30.9,26.4,29.63,WNW,285,0.0,0.0,83,0.00,,---,0.00,0.00,VWS V14.01,2013-03-02 04:24:00,
2013-03-01 23:29:00,30.8,26.3,29.63,WNW,286,0.0,1.0,83,0.00,,---,0.00,0.00,VWS V14.01,2013-03-02 04:29:00,
2013-03-01 23:34:00,30.8,26.3,29.63,WNW,286,0.0,3.0,83,0.00,,---,0.00,0.00,VWS V14.01,2013-03-02 04:34:00,
2013-03-01 23:39:00,30.8,26.3,29.63,WNW,286,0.0,3.0,83,0.00,,---,0.00,0.00,VWS V14.01,2013-03-02 04:39:00,
2013-03-01 23:44:00,30.6,26.1,29.63,WNW,286,1.0,3.0,83,0.00,,---,0.00,0.00,VWS V14.01,2013-03-02 04:44:00,
2013-03-01 23:49:00,30.6,26.1,29.63,WNW,298,0.0,0.0,83,0.00,,---,0.00,0.00,VWS V14.01,2013-03-02 04:49:00,
2013-03-01 23:54:00,30.5,26.0,29.63,WNW,293,0.0,3.0,83,0.00,,---,0.00,0.00,VWS V14.01,2013-03-02 04:54:00,
2013-03-01 23:59:00,30.5,26.0,29.63,WNW,293,0.0,3.0,83,0.00,,---,0.00,0.00,VWS V14.01,2013-03-02 04:59:00,